Date,TemperatureHighF,TemperatureAvgF,TemperatureLowF,DewpointHighF,DewpointAvgF,DewpointLowF,HumidityHigh,HumidityAvg,HumidityLow,PressureMaxIn,PressureMinIn,WindSpeedMaxMPH,WindSpeedAvgMPH,GustSpeedMaxMPH,PrecipitationSumIn
2013-1-1,29,27,24,24,22,19,90,81,69,30.08,29.98,4,0,4,0.00
2013-1-4,30,24,16,24,19,12,88,83,73,30.17,30.07,3,1,13,0.00
2013-1-5,35,28,18,32,25,16,95,87,74,30.19,29.93,1,0,6,0.01
2013-1-6,36,34,30,33,30,26,91,87,80,30.22,29.83,4,1,12,0.00
2013-1-7,35,28,20,29,24,19,94,85,74,30.30,30.08,2,0,13,0.00
2013-1-8,39,31,25,31,27,22,94,84,72,30.15,30.02,0,0,4,0.03
2013-1-9,47,40,30,36,31,26,88,73,50,30.38,29.97,5,1,15,0.08
2013-1-10,41,33,24,36,29,22,96,85,68,30.44,29.96,10,1,11,0.30
2013-1-11,55,47,37,53,46,36,99,95,85,29.96,29.65,13,1,17,0.31
2013-2-1,12,9,6,8,6,4,92,85,80,30.27,30.17,7,0,7,0.00
2013-2-2,26,18,7,24,16,5,95,91,83,30.17,29.89,14,0,14,0.00
2013-2-3,22,18,14,20,15,12,93,89,84,29.97,29.86,12,0,12,0.00
2013-2-4,28,23,19,25,21,16,95,91,86,29.97,29.78,3,0,3,0.00
2013-2-5,31,24,10,28,21,8,97,92,78,29.93,29.74,7,0,7,0.06
2013-2-6,33,28,19,27,23,17,95,81,64,30.18,29.93,3,0,5,0.08
2013-2-7,42,33,27,33,28,24,97,83,67,30.11,29.72,7,0,7,0.26
2013-2-8,34,31,23,33,27,20,98,87,73,30.29,29.73,12,1,12,0.00
2013-2-9,35,26,14,26,21,12,96,83,66,30.35,30.10,8,0,8,0.01
2013-2-10,46,37,28,45,33,24,98,85,75,30.11,29.50,7,0,7,0.05
2013-2-11,47,37,31,46,30,24,98,77,70,29.89,29.46,23,4,23,0.01
2013-2-12,33,30,28,26,25,23,84,80,72,30.01,29.87,13,1,13,0.00
2013-2-13,44,32,22,33,27,19,95,81,59,29.87,29.63,7,0,7,0.00
2013-2-14,41,36,30,36,31,25,95,83,67,29.84,29.60,18,1,18,0.00
2013-2-15,34,28,22,27,23,18,90,81,63,30.09,29.84,12,1,12,0.01
2013-2-16,24,19,10,21,15,8,93,84,69,30.06,29.99,13,1,13,0.00
2013-2-17,29,20,11,17,14,9,94,77,54,30.15,30.04,7,0,7,0.02
2013-2-18,52,38,24,45,30,15,94,74,62,30.06,29.37,11,1,11,0.12
2013-2-19,45,23,16,43,20,13,95,88,76,29.99,29.33,16,2,16,0.05
2013-2-20,24,20,16,20,17,14,93,88,81,30.24,29.99,15,1,15,0.00
2013-2-21,27,24,21,22,20,17,90,83,76,30.30,30.01,13,1,13,0.01
2013-2-22,34,28,22,33,26,18,98,94,81,30.02,29.76,15,2,15,0.01
2013-2-23,31,28,26,26,23,20,88,80,68,29.88,29.82,11,1,11,0.00
2013-2-24,38,29,23,28,24,20,95,82,62,30.08,29.86,9,0,9,0.07
2013-2-25,42,31,19,30,25,17,95,80,57,30.14,29.94,6,0,6,0.06
2013-2-26,35,33,31,33,29,25,97,87,71,29.95,29.37,16,2,16,0.04
2013-2-27,36,34,33,35,33,32,99,98,95,29.52,29.37,4,0,4,0.31
2013-2-28,39,34,32,34,32,29,99,91,79,29.90,29.51,9,1,9,0.09
2013-3-1,36,31,26,29,25,20,89,79,66,30.07,29.89,7,0,7,0.00
2013-3-2,33,28,24,23,21,18,83,75,63,30.06,30.00,11,1,11,0.00
2013-3-3,33,26,19,23,19,16,89,73,55,30.03,29.97,10,1,10,0.00
2013-3-7,37,31,21,29,26,20,95,82,69,30.34,30.28,6,0,6,0.04
2013-3-8,41,28,13,26,21,11,96,78,50,30.43,30.31,6,0,6,0.05
2013-3-9,44,36,24,35,29,21,91,77,61,30.31,29.86,10,0,10,0.01
2013-3-10,58,49,40,46,41,35,94,73,61,29.86,29.59,9,0,9,0.06
2013-3-11,54,45,35,49,42,32,99,91,65,29.67,29.42,14,1,14,0.06
2013-3-12,36,33,31,32,30,26,96,87,68,29.83,29.65,12,1,12,0.00
2013-3-18,35,33,0,34,32,0,97,93,82,29.65,29.50,15,1,15,0.03
2013-3-19,34,27,21,24,18,15,85,70,51,29.95,29.64,26,3,26,0.00
2013-3-20,29,23,18,20,16,11,91,74,59,29.96,29.89,17,2,17,0.00
2013-3-21,31,23,15,24,19,13,93,83,69,29.94,29.88,18,1,18,0.03
2013-3-22,40,29,19,24,20,14,93,71,41,29.99,29.92,10,1,10,0.00
2013-3-23,39,29,21,27,24,20,95,80,61,30.06,29.93,12,0,12,0.00
2013-3-24,38,32,25,28,26,22,91,78,63,29.94,29.52,12,1,12,0.00
2013-3-25,37,34,29,31,28,25,90,81,71,29.90,29.51,9,1,13,0.01
2013-3-26,43,35,32,33,30,28,91,81,58,30.12,29.90,15,1,15,0.00
2013-3-27,44,36,28,34,28,21,95,73,45,30.21,30.12,17,1,17,0.00
2013-3-28,51,37,24,31,25,21,92,65,38,30.24,30.19,11,0,11,0.00
2013-3-29,52,37,24,28,23,20,92,62,30,30.24,30.14,10,0,11,0.00
2013-3-30,57,41,24,36,29,21,92,65,41,30.16,29.81,8,0,8,0.00
2013-3-31,61,49,39,45,38,28,97,69,38,29.81,29.56,20,2,20,0.01
2013-4-1,39,33,26,32,20,16,81,60,41,30.06,29.70,12,2,18,0.00
2013-4-2,42,32,21,22,17,10,89,59,29,30.20,30.05,15,1,15,0.00
2013-4-3,47,33,20,24,16,8,89,56,22,30.35,30.20,12,0,12,0.00
2013-4-4,57,40,23,30,22,19,86,55,24,30.25,29.86,7,0,7,0.00
2013-4-5,53,42,31,32,27,18,82,58,27,30.11,29.84,11,1,11,0.00
2013-4-6,64,49,31,44,32,26,83,53,34,30.08,29.59,15,1,15,0.00
2013-4-7,61,52,41,49,42,35,83,70,52,29.89,29.52,15,2,15,0.03
2013-4-8,68,50,41,59,44,35,95,79,60,29.89,29.56,21,2,21,0.06
2013-4-9,76,56,39,63,50,38,96,80,58,29.91,29.69,10,0,10,0.00
2013-4-10,55,46,42,51,45,41,97,94,86,29.84,29.71,10,1,10,0.09
2013-4-11,43,42,40,42,41,39,98,97,95,29.78,29.50,14,3,14,0.98
2013-4-12,44,40,38,40,38,34,99,91,80,29.74,29.48,12,1,12,0.14
2013-4-13,44,39,35,35,32,29,94,78,59,29.90,29.74,15,1,15,0.01
2013-4-14,60,47,36,48,39,31,92,75,58,29.95,29.71,14,2,14,0.00
2013-4-15,65,57,47,57,52,45,98,83,73,29.83,29.69,11,0,11,0.17
2013-4-16,54,47,43,46,41,33,98,80,52,30.14,29.82,11,1,11,0.38
2013-4-17,54,48,44,46,41,36,97,78,64,30.17,29.79,21,2,21,0.74
2013-4-18,71,59,47,66,57,46,98,94,79,29.83,29.38,15,1,15,0.54
2013-4-19,59,40,34,59,36,31,98,84,73,29.76,29.38,17,3,17,0.39
2013-4-20,42,36,29,32,26,20,95,68,42,30.37,29.76,10,2,17,0.04
2013-4-21,52,40,26,33,27,21,90,63,44,30.49,30.31,11,1,11,0.00
2013-4-22,65,51,33,38,34,30,89,56,29,30.31,30.01,10,0,10,0.00
2013-4-23,66,52,41,56,45,38,96,78,56,30.01,29.75,10,0,10,0.52
2013-4-24,45,39,36,40,34,25,97,82,47,30.07,29.74,15,1,15,0.12
2013-4-25,51,42,35,41,34,29,91,74,48,30.27,30.01,16,1,16,0.04
2013-4-26,64,48,30,42,36,29,96,68,42,30.33,30.20,11,0,11,0.00
2013-4-27,69,56,38,47,40,34,95,60,29,30.23,29.93,10,0,10,0.00
2013-4-28,59,55,50,55,52,47,96,90,65,29.93,29.73,4,0,4,0.12
2013-4-29,72,60,46,58,53,45,99,80,54,29.84,29.75,9,0,9,0.00
2013-4-30,80,68,56,63,58,52,87,72,54,29.88,29.76,10,1,10,0.00
2013-5-1,84,72,56,61,57,53,89,61,37,30.04,29.88,7,0,7,0.00
2013-5-2,82,68,51,62,56,46,90,67,42,30.06,29.95,9,0,9,0.00
2013-5-3,79,64,46,61,52,43,91,68,46,29.99,29.84,11,1,11,0.00
2013-5-4,73,65,58,52,46,40,64,52,34,29.92,29.85,11,1,11,0.00
2013-5-5,74,63,52,51,46,42,74,55,37,29.92,29.86,10,1,10,0.00
2013-5-6,79,65,55,56,46,37,86,53,25,29.91,29.81,7,0,7,0.00
2013-5-7,78,64,50,58,52,48,93,67,44,29.92,29.85,6,0,6,0.00
2013-5-8,78,65,52,62,54,48,94,70,42,29.92,29.84,9,0,9,0.16
2013-5-9,81,64,49,60,53,45,97,71,31,29.87,29.75,6,0,6,0.05
2013-5-10,63,57,46,60,54,45,98,92,74,29.81,29.64,13,1,13,0.21
2013-5-11,56,47,38,51,43,35,97,88,64,29.89,29.72,22,1,22,0.12
2013-5-12,49,42,35,37,33,30,95,72,48,30.04,29.89,15,1,15,0.07
2013-5-13,58,46,32,36,31,22,95,60,25,30.10,29.98,12,0,12,0.00
2013-5-14,83,65,49,59,46,30,71,51,38,29.99,29.57,12,0,12,0.11
2013-5-15,79,73,58,62,55,48,83,55,37,29.71,29.50,15,1,15,0.00
2013-5-16,82,66,51,55,50,43,96,62,28,29.87,29.70,7,0,7,0.11
2013-5-17,79,67,56,56,50,43,80,54,40,29.96,29.85,6,0,6,0.00
2013-5-18,81,68,57,62,53,42,84,60,44,29.99,29.86,6,0,6,0.03
2013-5-19,85,73,59,69,60,51,80,64,47,29.88,29.69,4,0,4,0.00
2013-5-20,88,78,69,73,68,64,93,72,48,29.74,29.64,7,0,7,0.13
2013-5-21,81,72,63,70,66,61,98,81,62,29.70,29.57,9,0,9,0.47
2013-5-22,76,68,62,68,65,60,96,89,68,29.62,29.53,8,0,8,0.25
2013-5-23,63,54,44,60,52,42,97,94,90,30.11,29.61,5,0,9,0.03
2013-5-24,59,48,38,46,40,37,96,76,50,30.30,30.11,7,0,7,0.10
2013-5-25,65,52,38,49,43,37,97,73,41,30.30,30.16,5,0,5,0.01
2013-5-26,69,58,45,48,44,41,94,62,39,30.22,30.07,4,0,4,0.08
2013-5-27,62,56,52,55,50,38,98,83,43,30.08,29.82,7,1,7,0.31
2013-5-28,78,68,55,72,65,55,99,92,76,29.83,29.67,16,0,16,0.46
2013-5-29,82,71,62,72,66,61,99,85,66,29.87,29.72,11,0,11,0.17
2013-5-30,84,75,66,72,68,63,91,78,61,29.89,29.77,10,0,10,0.01
2013-5-31,76,71,65,70,67,63,98,88,79,29.82,29.64,10,0,10,0.28
2013-6-1,73,68,63,67,65,62,98,90,79,29.73,29.58,12,0,12,0.68
2013-6-2,65,58,45,64,54,43,98,86,72,29.93,29.58,10,0,10,0.00
2013-6-3,67,54,42,51,45,41,98,75,46,30.01,29.92,7,0,7,0.00
2013-6-4,73,59,44,57,49,43,98,72,44,30.08,30.00,4,0,4,0.00
2013-6-5,75,66,57,57,50,45,85,59,43,30.02,29.82,4,0,4,0.00
2013-6-6,71,64,58,59,53,45,83,68,52,29.85,29.73,4,0,4,0.00
2013-6-7,72,63,53,58,53,50,92,73,55,29.82,29.76,5,0,5,0.00
2013-6-8,75,64,50,60,55,49,98,73,50,29.91,29.80,5,0,5,0.13
2013-6-9,79,70,60,66,60,55,87,71,52,29.93,29.74,3,0,3,0.00
2013-6-10,73,68,64,69,65,62,98,92,75,29.76,29.63,8,0,8,0.82
2013-6-11,82,70,61,70,64,60,98,84,58,29.82,29.70,6,0,6,0.00
2013-6-12,84,74,66,77,70,64,98,88,73,29.80,29.51,6,0,6,0.27
2013-6-13,76,66,57,65,60,54,98,81,52,29.88,29.40,15,1,15,0.16
2013-6-14,77,64,54,64,58,53,98,80,47,30.00,29.87,6,0,6,0.06
2013-6-15,74,65,57,66,62,56,98,90,73,29.98,29.78,3,0,3,0.04
2013-6-16,82,72,65,69,65,56,96,79,49,29.80,29.74,9,0,9,0.04
2013-6-17,85,73,63,69,62,54,98,72,35,29.82,29.75,9,0,9,0.03
2013-6-18,74,66,62,64,60,51,97,82,62,29.95,29.76,6,0,6,0.03
2013-6-19,75,64,53,59,51,46,84,63,39,30.05,29.94,4,0,4,0.02
2013-6-20,82,69,55,67,58,52,97,72,43,30.08,30.00,3,0,3,0.04
2013-6-21,84,73,65,70,66,62,94,80,51,30.06,29.88,10,0,10,0.02
2013-6-22,84,74,67,75,70,65,97,87,71,29.98,29.85,4,0,4,0.03
2013-6-23,86,76,66,73,68,64,96,79,58,29.96,29.85,9,0,9,0.02
2013-6-24,84,75,68,74,69,66,98,82,60,29.96,29.82,16,0,25,0.01
2013-6-25,78,70,68,75,68,66,96,91,83,29.77,29.67,10,0,13,0.03
2013-6-26,80,72,68,74,70,67,98,92,72,29.77,29.61,5,0,6,0.05
2013-6-27,84,74,67,74,70,66,99,90,65,29.65,29.55,9,0,9,0.07
2013-6-28,79,70,63,69,65,62,99,83,61,29.56,29.47,6,0,10,0.01
2013-6-29,76,66,62,67,63,60,98,92,69,29.62,29.45,5,0,5,0.01
2013-6-30,78,67,61,68,62,59,99,87,59,29.83,29.61,6,0,6,0.00
2013-7-1,75,66,58,66,56,48,82,71,52,29.93,29.83,8,0,8,0.01
2013-7-2,66,63,58,65,60,55,97,90,73,29.95,29.90,3,0,3,0.01
2013-7-3,78,70,64,70,66,63,98,87,66,29.97,29.89,5,0,6,0.01
2013-7-4,77,69,61,67,63,60,98,83,63,30.02,29.96,4,0,4,0.02
2013-7-5,80,72,63,72,67,62,98,84,68,30.00,29.92,4,0,4,0.01
2013-7-6,78,73,68,72,69,66,96,87,77,29.97,29.88,2,0,2,0.01
2013-7-7,82,74,68,75,70,67,99,90,72,29.93,29.85,8,0,8,0.02
2013-7-8,79,74,71,74,72,70,98,93,82,29.93,29.84,6,0,6,0.01
2013-7-9,85,75,70,80,74,70,99,96,79,29.89,29.76,24,0,24,0.04
2013-7-10,82,75,63,78,70,58,99,85,57,29.88,29.71,9,0,9,0.03
2013-7-11,78,67,58,64,58,54,98,76,49,29.97,29.88,6,0,8,0.06
2013-7-12,80,68,56,65,60,55,99,77,48,30.05,29.95,3,0,3,0.10
2013-7-13,82,71,59,69,64,58,98,81,59,30.06,30.01,4,0,4,0.04
2013-7-14,86,77,67,75,70,65,95,80,59,30.11,30.05,3,0,3,0.03
2013-7-15,86,78,71,81,75,69,98,89,74,30.16,30.10,4,0,4,0.07
2013-7-16,89,80,71,78,74,70,99,84,61,30.21,30.13,6,0,6,0.04
2013-7-17,90,80,72,79,75,70,98,84,64,30.20,30.05,5,0,5,0.02
2013-7-18,90,80,71,81,75,70,99,87,66,30.07,29.85,12,0,12,0.02
2013-7-19,92,83,74,79,75,72,97,78,55,29.86,29.64,13,0,13,0.01
2013-7-20,86,78,69,75,69,62,96,75,50,29.81,29.63,9,0,9,0.01
2013-7-21,84,73,66,72,66,62,96,81,56,29.87,29.76,6,0,6,0.01
2013-7-22,81,72,65,73,68,65,99,89,66,29.83,29.65,6,0,6,0.01
2013-7-23,79,70,60,72,65,54,95,83,64,29.83,29.59,11,0,12,0.01
2013-7-24,72,62,52,60,54,50,96,77,54,29.95,29.83,4,0,4,0.01
2013-7-25,76,64,54,65,58,52,98,80,54,30.01,29.94,4,0,5,0.03
2013-7-26,74,66,59,66,62,57,97,85,67,29.97,29.78,3,0,7,0.06
2013-7-27,70,64,57,65,60,52,98,86,71,29.80,29.71,14,0,14,0.05
2013-7-28,66,59,52,56,52,50,92,79,63,29.91,29.76,15,0,15,0.06
2013-7-29,72,62,55,62,57,52,92,82,66,30.09,29.90,9,0,9,0.08
2013-7-30,76,65,54,66,59,52,99,84,61,30.12,29.99,4,0,4,1.25
2013-7-31,68,66,64,68,65,63,100,97,89,29.99,29.83,2,0,3,52.43
2013-8-1,78,67,60,69,62,56,100,85,49,29.87,29.82,11,0,11,0.01
2013-8-2,77,65,56,72,63,55,99,92,79,29.87,29.73,4,0,4,0.60
2013-8-3,78,69,58,67,61,54,99,80,46,29.98,29.82,0,0,0,0.00
2013-8-4,75,63,55,62,57,54,99,81,52,30.10,29.98,0,0,0,0.10
2013-8-5,72,63,52,66,58,51,98,86,71,30.03,29.83,0,0,0,0.00
2013-8-6,77,69,62,72,67,62,99,92,82,29.85,29.77,0,0,0,0.60
2013-8-7,78,71,68,74,69,66,99,95,85,29.81,29.71,0,0,0,0.05
2013-8-8,76,69,62,69,65,61,98,86,68,29.90,29.81,0,0,0,0.12
2013-8-9,79,69,61,68,63,59,96,82,54,29.91,29.85,0,0,0,0.00
2013-8-10,80,70,62,68,64,59,98,84,56,30.01,29.91,0,0,0,0.12
2013-8-11,79,67,58,65,61,57,98,82,53,30.03,29.94,0,0,0,0.00
2013-8-12,82,70,64,72,67,62,98,89,67,29.95,29.74,0,0,0,0.27
2013-8-13,68,62,54,66,56,50,98,82,58,30.02,29.78,0,0,0,0.00
2013-8-14,69,57,48,56,51,46,98,80,54,30.11,30.02,0,0,0,0.10
2013-8-15,74,59,48,61,54,46,99,83,54,30.09,30.01,0,0,0,0.00
2013-8-16,76,63,50,62,55,49,99,78,44,30.09,30.03,0,0,0,0.10
2013-8-17,78,65,53,62,57,52,99,79,46,30.15,30.08,0,0,0,0.00
2013-8-18,79,67,55,67,60,54,99,82,51,30.11,30.00,0,0,0,0.10
2013-8-19,82,68,57,69,62,57,99,82,53,30.03,29.94,0,0,0,0.00
2013-8-20,84,71,60,71,65,59,99,82,55,30.04,29.97,1,0,1,0.10
2013-8-21,85,74,65,73,68,63,98,82,57,30.02,29.88,6,0,6,0.00
2013-8-22,78,71,65,73,68,64,99,92,81,29.99,29.89,12,0,12,0.66
2013-8-23,80,69,61,67,61,55,97,78,43,30.08,29.97,0,0,0,0.00
2013-8-24,81,67,56,64,58,55,99,76,41,30.20,30.08,0,0,0,0.08
2013-8-25,86,71,58,71,63,57,98,79,50,30.19,30.06,0,0,0,0.00
2013-8-26,87,74,62,76,69,60,98,83,64,30.08,29.90,0,0,0,0.10
2013-8-27,89,80,71,79,73,68,94,80,60,29.90,29.73,0,0,0,0.00
2013-8-28,85,77,70,77,72,68,94,84,73,29.92,29.71,1,0,3,0.12
2013-8-29,85,74,64,73,68,63,99,84,52,29.97,29.88,0,0,0,0.00
2013-8-30,88,77,65,76,71,64,99,83,59,29.88,29.63,7,0,7,0.13
2013-8-31,78,74,69,73,70,68,95,88,77,29.74,29.66,3,0,3,0.00
2013-9-1,85,75,68,75,70,66,98,86,66,29.70,29.61,6,0,6,0.00
2013-9-2,78,69,57,70,63,54,97,83,56,29.87,29.63,10,0,10,0.11
2013-9-3,74,62,54,61,56,52,97,82,58,29.97,29.86,5,0,5,0.00
2013-9-4,79,66,53,64,57,51,99,77,48,30.02,29.95,7,0,7,0.12
2013-9-5,77,64,54,60,52,40,97,69,29,30.15,30.01,4,0,4,0.00
2013-9-6,79,64,50,65,55,47,97,73,41,30.17,29.95,4,0,4,0.10
2013-9-7,87,71,60,70,64,57,94,80,51,29.95,29.81,10,0,10,0.01
2013-9-8,76,70,64,68,65,63,98,85,71,29.94,29.82,5,0,5,0.11
2013-9-9,88,75,64,75,66,55,85,76,63,29.92,29.75,5,0,5,0.00
2013-9-10,94,82,71,74,70,65,96,70,41,29.91,29.78,11,0,11,0.11
2013-9-11,92,78,71,74,71,67,96,80,47,29.94,29.81,12,0,12,0.00
2013-9-12,81,71,60,70,61,51,97,74,38,29.93,29.76,6,0,6,0.13
2013-9-13,65,56,47,52,47,43,93,71,46,30.05,29.93,11,0,11,0.00
2013-9-14,68,54,41,48,43,40,98,72,37,30.12,30.00,4,0,4,0.10
2013-10-9,69,58,52,52,49,46,88,75,47,30.10,30.08,1,0,1,0.00
2013-10-10,71,57,46,56,50,44,97,80,50,30.11,30.00,5,0,5,0.00
2013-10-11,72,57,46,55,50,45,98,77,43,30.05,29.93,3,0,3,0.00
2013-10-12,76,62,50,64,56,49,98,83,52,30.02,29.90,4,0,4,0.00
2013-10-13,64,53,42,60,47,41,99,82,48,30.30,30.02,7,0,7,0.00
2013-10-14,62,50,40,50,44,40,99,83,55,30.33,30.12,3,0,3,0.00
2013-10-15,63,56,46,62,53,44,98,92,86,30.13,29.73,2,0,2,0.00
2013-10-16,61,52,45,61,49,44,98,90,85,29.85,29.73,13,0,13,0.00
2013-10-17,51,49,45,49,47,42,96,92,88,29.84,29.72,9,0,9,0.00
2013-10-18,60,46,39,49,43,38,99,87,62,29.88,29.79,11,0,11,0.01
2013-10-19,55,46,42,46,40,32,97,82,45,29.84,29.70,14,0,14,0.00
2013-10-20,59,50,39,48,43,37,95,76,56,29.83,29.71,6,0,6,0.00
2013-10-21,55,50,41,49,43,30,92,77,64,29.84,29.72,10,0,10,0.00
2013-10-22,48,39,33,36,32,29,91,76,55,29.89,29.81,8,0,8,0.00
2013-10-23,44,38,35,39,35,30,96,89,63,29.91,29.76,10,0,10,0.00
2013-10-24,42,36,34,38,35,33,97,93,76,30.17,29.90,9,0,9,0.00
2013-10-25,47,39,32,39,33,29,98,82,51,30.30,30.02,9,0,9,0.00
2013-10-26,52,45,40,42,35,30,86,69,61,30.02,29.74,14,0,14,0.00
2013-10-27,53,42,32,38,34,30,97,76,46,29.99,29.90,6,0,9,0.00
2013-10-28,55,42,32,42,36,30,96,80,53,30.26,29.99,2,0,2,0.00
2013-10-29,54,44,35,44,38,32,91,81,62,30.31,30.08,2,0,2,0.00
2013-10-30,60,52,40,60,49,38,99,89,82,30.08,29.71,1,0,1,0.00
2013-10-31,63,59,51,62,59,50,99,99,97,29.70,29.10,11,0,14,0.00
2013-11-1,51,47,46,51,44,42,98,90,78,29.61,29.21,10,0,15,0.00
2013-11-2,49,45,42,46,43,40,98,93,79,30.01,29.60,5,0,9,0.00
2013-11-3,48,43,40,41,39,36,96,84,68,30.27,30.02,3,0,3,0.00
2013-11-4,52,46,39,44,39,35,89,77,63,30.28,30.12,7,0,7,0.01
2013-11-5,55,52,49,50,47,44,88,82,74,30.23,29.98,5,0,5,0.01
2013-11-6,56,51,41,54,48,39,98,92,71,29.98,29.71,12,0,12,0.01
2013-11-7,46,39,33,40,34,31,94,81,56,30.12,29.98,12,0,12,0.00
2013-11-8,46,39,32,36,33,30,97,80,62,30.24,30.00,5,0,5,0.00
2013-11-9,58,49,43,45,39,34,74,67,56,30.00,29.77,15,1,15,0.00
2013-11-10,48,42,35,36,33,31,92,72,59,30.23,29.91,16,1,16,0.00
2013-11-11,46,38,29,41,33,23,94,82,67,30.32,29.99,10,0,10,0.00
2013-11-12,33,28,22,29,23,20,94,83,68,30.54,30.32,10,0,10,0.00
2013-11-13,38,29,21,24,20,15,90,71,46,30.51,30.13,10,0,10,0.03
2013-11-14,50,39,30,30,25,21,74,58,42,30.13,29.90,10,0,10,0.18
2013-11-15,50,44,36,37,32,28,75,62,52,29.96,29.88,4,0,4,0.80
2013-11-16,58,50,40,57,46,34,97,89,74,29.92,29.58,9,0,9,0.71
2013-11-17,63,57,46,62,54,39,98,91,75,29.58,29.11,21,2,21,0.67
2013-11-18,46,39,36,40,33,28,88,77,68,30.12,29.57,20,2,20,0.00
2013-11-19,42,37,31,30,28,26,84,72,57,30.27,30.12,10,0,10,0.00
2013-11-20,43,37,29,38,30,25,88,77,61,30.28,30.08,10,0,10,0.03
2013-11-21,49,45,40,46,42,38,98,91,81,30.13,30.07,6,0,6,0.40
2013-11-22,46,40,29,46,37,28,99,92,76,30.34,30.06,12,1,12,0.03
2013-11-23,30,25,18,28,22,16,95,86,64,30.53,30.27,14,1,15,0.00
2013-11-24,25,20,17,22,16,10,94,84,63,30.59,30.35,6,0,6,0.00
2013-11-25,32,26,18,28,20,11,93,77,62,30.35,30.03,9,0,9,0.01
2013-11-26,34,30,26,30,27,22,92,87,78,30.03,29.88,12,0,12,0.01
2013-11-27,28,25,22,25,22,19,94,90,80,30.16,29.94,6,0,6,0.00
2013-11-28,30,26,22,24,21,18,93,80,66,30.37,30.15,5,0,5,0.00
2013-11-29,35,30,27,24,23,22,88,75,61,30.55,30.37,5,0,5,0.00
2013-11-30,46,36,29,35,29,24,86,76,61,30.39,30.00,6,0,6,0.04
2013-12-1,44,36,28,37,31,25,94,83,67,30.00,29.90,7,0,7,0.00
2013-12-2,40,33,26,33,30,25,96,86,69,29.90,29.75,7,0,7,0.00
2013-12-3,48,41,33,46,40,32,98,95,92,29.75,29.65,7,0,7,0.09
2013-12-4,59,51,44,57,50,43,99,96,88,29.71,29.48,8,0,8,0.00
2013-12-5,58,36,29,55,31,22,88,80,73,30.12,29.51,14,1,14,0.00
2013-12-6,29,27,24,23,20,16,81,77,71,30.37,30.10,9,0,9,0.00
2013-12-7,24,21,14,20,15,11,89,77,66,30.56,30.37,10,0,10,0.00
2013-12-8,27,22,14,25,18,11,95,86,71,30.50,29.86,9,1,9,0.00
2013-12-9,28,23,16,26,19,10,95,85,74,30.11,29.83,12,1,12,0.00
2013-12-10,24,15,4,15,9,-1,83,75,64,30.21,29.95,17,1,17,0.00
2013-12-11,24,18,13,22,14,8,92,85,74,30.42,30.19,13,0,13,0.00
2013-12-12,19,11,0,12,6,-4,91,78,66,30.44,30.17,12,0,12,0.00
2013-12-13,31,22,10,24,17,8,93,82,66,30.17,30.07,4,0,4,0.01
2013-12-14,27,24,21,25,22,19,94,92,88,30.09,29.78,10,0,10,0.00
2013-12-15,26,18,12,24,16,9,94,90,85,30.02,29.81,10,0,10,0.00
2013-12-16,22,15,2,17,12,-2,95,86,73,30.11,29.94,4,0,4,0.00
2013-12-17,28,23,19,26,21,16,94,92,87,29.97,29.86,6,0,6,0.00
2013-12-18,28,24,20,23,19,16,87,80,69,30.11,29.80,5,0,5,0.00
2013-12-19,43,39,28,38,35,22,96,86,79,29.88,29.73,5,0,5,0.39
2013-12-20,41,39,35,41,38,35,99,98,96,29.73,29.60,4,0,4,0.31
2013-12-21,36,34,33,36,34,32,99,99,99,29.73,29.48,7,0,7,0.49
2013-12-22,36,34,31,36,33,30,99,97,94,29.96,29.43,9,0,9,0.14
2013-12-23,31,24,9,30,20,6,95,85,75,30.33,29.95,10,1,10,0.00
2013-12-24,20,12,6,14,8,2,89,84,76,30.48,30.32,6,0,6,0.00
2013-12-25,27,23,17,26,20,14,95,87,80,30.38,30.00,9,0,9,0.00
2013-12-26,33,26,21,29,23,18,96,87,74,30.21,29.99,7,0,7,0.00
2013-12-27,40,35,31,34,31,28,91,84,75,30.22,30.01,6,0,6,0.06
2013-12-28,47,40,33,38,34,31,92,79,68,30.03,29.79,9,0,9,0.02
2013-12-29,40,33,23,34,29,19,93,86,79,30.00,29.67,19,1,19,0.00
2013-12-30,23,19,15,19,14,12,88,81,69,30.20,30.00,11,0,11,0.00
2013-12-31,17,15,14,13,12,8,91,86,71,30.27,30.06,9,0,9,0.00
2014-1-1,19,16,13,15,14,11,92,89,84,30.24,30.09,3,0,4,0.00
2014-1-2,17,12,0,100,12,-4,91,83,69,30.29,30.01,12,0,12,0.00